Starlink 6037

operational
NORAD ID: 56461 Int'l Des: 2023-064 Owner: SPXS Country: US Constellation: starlink
LEOCIRCULAR

About Starlink 6037

Description loading...

Live Position

Loading 3D Globe...

Upcoming Passes

Altitude History

Altitude vs Time

uPlot chart will show altitude changes over time

Two-Line Element Set

1 56461U 23064P 26035.53458455 .00000128 00000-0 18487-4 0 9995
2 56461 69.9990 227.8926 0002428 270.0490 90.0391 14.98333582150284
Epoch: Feb 4, 2026 • Age: 12 hours

Current Status

Altitude 585.1 km
Velocity 7.57 km/s
Sub-Earth Point 69.38°N, 159.33°E
Launch Date May 10, 2023
Age 2.7 years
Type internet

Technical Details

Classification Payload
Mass 305.00 kg
Dry Mass 290.00 kg
Total Mass 305.00 kg
Length 0.20 m
Diameter 2.80 m
Span 9.00 m
Shape Box + pan
Manufacturer SPXS
Bus Type Starlink
Phase Status In Orbit
Owner/State SPXS/US

Large Constellations

Loading constellations...